Wetterdaten: aktuell Freitag, 24.05.2019 07:30
Datum Zeit Temp. A. Temp. A. min Feuchte A. Luftdruck Regen Wind Richtung Richtung Sonnenschein Solar Taupunkt Windchill Windben
24.05.2019 07:30 8,9 C 8,6 C 93 % 1023,0 hPa 0,0 l/m 2,3 km/h (1 Bft) NO 53 0 min 0 W/m 7,8 C 8,9 C 4,8 km/h (1 Bft)
24.05.2019 07:25 8,6 C 8,4 C 92 % 1023,0 hPa 0,0 l/m 1,4 km/h (1 Bft) N-NO 23 0 min 0 W/m 7,4 C 8,6 C 3,2 km/h (1 Bft)
24.05.2019 07:20 8,4 C 8,2 C 92 % 1022,9 hPa 0,0 l/m 0,6 km/h (0 Bft) N-NO 22 0 min 0 W/m 7,2 C 8,4 C 3,2 km/h (1 Bft)
24.05.2019 07:15 8,2 C 8,1 C 92 % 1023,0 hPa 0,0 l/m 0,2 km/h (0 Bft) N-NO 22 0 min 0 W/m 7,0 C 8,2 C 1,6 km/h (1 Bft)
24.05.2019 07:10 8,1 C 8,0 C 92 % 1023,0 hPa 0,0 l/m 0,4 km/h (0 Bft) N-NO 22 0 min 0 W/m 6,9 C 8,1 C 1,6 km/h (1 Bft)
24.05.2019 07:05 8,0 C 7,8 C 92 % 1022,9 hPa 0,0 l/m 0,4 km/h (0 Bft) N-NO 22 0 min 0 W/m 6,8 C 8,0 C 1,6 km/h (1 Bft)
24.05.2019 07:00 7,8 C 7,7 C 92 % 1023,0 hPa 0,0 l/m 0,2 km/h (0 Bft) N-NO 22 0 min 0 W/m 6,6 C 7,8 C 1,6 km/h (1 Bft)
24.05.2019 06:55 7,7 C 7,7 C 92 % 1023,0 hPa 0,0 l/m 0,0 km/h (0 Bft) N-NO 13 0 min 0 W/m 6,5 C 7,7 C 1,6 km/h (1 Bft)
24.05.2019 06:50 7,7 C 7,6 C 92 % 1022,9 hPa 0,0 l/m 0,3 km/h (0 Bft) N-NO 16 0 min 0 W/m 6,5 C 7,7 C 1,6 km/h (1 Bft)
24.05.2019 06:45 7,6 C 7,5 C 92 % 1022,9 hPa 0,0 l/m 0,8 km/h (0 Bft) N-NO 16 0 min 0 W/m 6,4 C 7,6 C 1,6 km/h (1 Bft)
24.05.2019 06:40 7,5 C 7,4 C 92 % 1022,9 hPa 0,0 l/m 0,2 km/h (0 Bft) N-NO 16 0 min 0 W/m 6,3 C 7,5 C 1,6 km/h (1 Bft)
24.05.2019 06:35 7,4 C 7,3 C 92 % 1022,9 hPa 0,0 l/m 0,0 km/h (0 Bft) N-NO 16 0 min 0 W/m 6,2 C 7,4 C 0,0 km/h (0 Bft)
24.05.2019 06:30 7,3 C 7,3 C 92 % 1023,0 hPa 0,0 l/m 0,3 km/h (0 Bft) N-NO 16 0 min 0 W/m 6,1 C 7,3 C 1,6 km/h (1 Bft)
24.05.2019 06:25 7,3 C 7,2 C 92 % 1022,9 hPa 0,0 l/m 0,1 km/h (0 Bft) N-NO 15 0 min 0 W/m 6,1 C 7,3 C 1,6 km/h (1 Bft)
24.05.2019 06:20 7,2 C 7,2 C 92 % 1022,9 hPa 0,0 l/m 0,3 km/h (0 Bft) N-NO 14 0 min 0 W/m 6,0 C 7,2 C 1,6 km/h (1 Bft)
24.05.2019 06:15 7,2 C 7,2 C 92 % 1022,9 hPa 0,0 l/m 1,0 km/h (0 Bft) N-NO 14 0 min 0 W/m 6,0 C 7,2 C 1,6 km/h (1 Bft)
24.05.2019 06:10 7,2 C 7,2 C 91 % 1022,9 hPa 0,0 l/m 1,3 km/h (1 Bft) N 9 0 min 0 W/m 5,8 C 7,2 C 3,2 km/h (1 Bft)
24.05.2019 06:05 7,2 C 7,2 C 91 % 1023,0 hPa 0,0 l/m 0,3 km/h (0 Bft) N 9 0 min 0 W/m 5,8 C 7,2 C 1,6 km/h (1 Bft)
24.05.2019 06:00 7,2 C 7,2 C 91 % 1022,9 hPa 0,0 l/m 1,3 km/h (1 Bft) N 5 0 min 0 W/m 5,8 C 7,2 C 3,2 km/h (1 Bft)
24.05.2019 05:55 7,2 C 7,2 C 91 % 1022,9 hPa 0,0 l/m 1,3 km/h (1 Bft) N 5 0 min 0 W/m 5,8 C 7,2 C 3,2 km/h (1 Bft)
24.05.2019 05:50 7,3 C 7,3 C 91 % 1022,9 hPa 0,0 l/m 0,5 km/h (0 Bft) N 5 0 min 0 W/m 5,9 C 7,3 C 1,6 km/h (1 Bft)
24.05.2019 05:45 7,3 C 7,3 C 91 % 1022,9 hPa 0,0 l/m 0,0 km/h (0 Bft) N 5 0 min 0 W/m 5,9 C 7,3 C 0,0 km/h (0 Bft)
24.05.2019 05:40 7,3 C 7,3 C 91 % 1022,9 hPa 0,0 l/m 0,3 km/h (0 Bft) N 5 0 min 0 W/m 5,9 C 7,3 C 1,6 km/h (1 Bft)
24.05.2019 05:35 7,3 C 7,3 C 91 % 1022,8 hPa 0,0 l/m 0,0 km/h (0 Bft) N 5 0 min 0 W/m 5,9 C 7,3 C 1,6 km/h (1 Bft)
24.05.2019 05:30 7,4 C 7,4 C 91 % 1022,8 hPa 0,0 l/m 0,0 km/h (0 Bft) N 5 0 min 0 W/m 6,0 C 7,4 C 0,0 km/h (0 Bft)
24.05.2019 05:25 7,4 C 7,4 C 91 % 1022,8 hPa 0,0 l/m 0,0 km/h (0 Bft) N 5 0 min 0 W/m 6,0 C 7,4 C 0,0 km/h (0 Bft)
24.05.2019 05:20 7,4 C 7,4 C 91 % 1022,7 hPa 0,0 l/m 0,0 km/h (0 Bft) N 5 0 min 0 W/m 6,0 C 7,4 C 0,0 km/h (0 Bft)
24.05.2019 05:15 7,5 C 7,5 C 91 % 1022,7 hPa 0,0 l/m 0,0 km/h (0 Bft) N 5 0 min 0 W/m 6,1 C 7,5 C 0,0 km/h (0 Bft)
24.05.2019 05:10 7,6 C 7,6 C 91 % 1022,7 hPa 0,0 l/m 0,1 km/h (0 Bft) N 5 0 min 0 W/m 6,2 C 7,6 C 1,6 km/h (1 Bft)
24.05.2019 05:05 7,6 C 7,6 C 91 % 1022,8 hPa 0,0 l/m 0,2 km/h (0 Bft) N 5 0 min 0 W/m 6,2 C 7,6 C 1,6 km/h (1 Bft)
24.05.2019 05:00 7,7 C 7,7 C 91 % 1022,8 hPa 0,0 l/m 0,8 km/h (0 Bft) N 5 0 min 0 W/m 6,3 C 7,7 C 1,6 km/h (1 Bft)
24.05.2019 04:55 7,7 C 7,7 C 91 % 1022,8 hPa 0,0 l/m 0,3 km/h (0 Bft) N 5 0 min 0 W/m 6,3 C 7,7 C 1,6 km/h (1 Bft)
24.05.2019 04:50 7,8 C 7,8 C 90 % 1022,7 hPa 0,0 l/m 1,4 km/h (1 Bft) N 5 0 min 0 W/m 6,3 C 7,8 C 3,2 km/h (1 Bft)
24.05.2019 04:45 7,8 C 7,8 C 90 % 1022,7 hPa 0,0 l/m 1,1 km/h (1 Bft) N 5 0 min 0 W/m 6,3 C 7,8 C 3,2 km/h (1 Bft)
24.05.2019 04:40 7,8 C 7,8 C 90 % 1022,8 hPa 0,0 l/m 0,7 km/h (0 Bft) N 5 0 min 0 W/m 6,3 C 7,8 C 1,6 km/h (1 Bft)
24.05.2019 04:35 7,9 C 7,9 C 90 % 1022,8 hPa 0,0 l/m 0,7 km/h (0 Bft) N 5 0 min 0 W/m 6,4 C 7,9 C 1,6 km/h (1 Bft)
24.05.2019 04:30 7,9 C 7,9 C 90 % 1022,8 hPa 0,0 l/m 1,1 km/h (1 Bft) N 5 0 min 0 W/m 6,4 C 7,9 C 3,2 km/h (1 Bft)
24.05.2019 04:25 8,0 C 7,9 C 90 % 1022,8 hPa 0,0 l/m 1,1 km/h (1 Bft) N 5 0 min 0 W/m 6,5 C 8,0 C 3,2 km/h (1 Bft)
24.05.2019 04:20 8,1 C 8,0 C 90 % 1022,8 hPa 0,0 l/m 0,2 km/h (0 Bft) N 5 0 min 0 W/m 6,6 C 8,1 C 1,6 km/h (1 Bft)
24.05.2019 04:15 8,1 C 8,1 C 90 % 1022,8 hPa 0,0 l/m 1,5 km/h (1 Bft) N 5 0 min 0 W/m 6,6 C 8,1 C 3,2 km/h (1 Bft)
24.05.2019 04:10 8,2 C 8,2 C 90 % 1022,8 hPa 0,0 l/m 0,6 km/h (0 Bft) N 5 0 min 0 W/m 6,7 C 8,2 C 3,2 km/h (1 Bft)
24.05.2019 04:05 8,3 C 8,3 C 90 % 1022,9 hPa 0,0 l/m 0,2 km/h (0 Bft) N 5 0 min 0 W/m 6,8 C 8,3 C 1,6 km/h (1 Bft)
24.05.2019 04:00 8,3 C 8,3 C 90 % 1022,9 hPa 0,0 l/m 1,2 km/h (1 Bft) N 5 0 min 0 W/m 6,8 C 8,3 C 1,6 km/h (1 Bft)
24.05.2019 03:55 8,4 C 8,4 C 90 % 1023,0 hPa 0,0 l/m 0,5 km/h (0 Bft) N 5 0 min 0 W/m 6,9 C 8,4 C 1,6 km/h (1 Bft)
24.05.2019 03:50 8,4 C 8,4 C 90 % 1023,0 hPa 0,0 l/m 0,9 km/h (0 Bft) N 5 0 min 0 W/m 6,9 C 8,4 C 1,6 km/h (1 Bft)
24.05.2019 03:45 8,4 C 8,4 C 90 % 1023,0 hPa 0,0 l/m 1,4 km/h (1 Bft) N 5 0 min 0 W/m 6,9 C 8,4 C 3,2 km/h (1 Bft)
24.05.2019 03:40 8,4 C 8,4 C 90 % 1023,0 hPa 0,0 l/m 1,0 km/h (0 Bft) N 5 0 min 0 W/m 6,9 C 8,4 C 3,2 km/h (1 Bft)
24.05.2019 03:35 8,5 C 8,5 C 90 % 1022,9 hPa 0,0 l/m 1,0 km/h (0 Bft) N 5 0 min 0 W/m 7,0 C 8,5 C 3,2 km/h (1 Bft)
24.05.2019 03:30 8,6 C 8,5 C 90 % 1023,0 hPa 0,0 l/m 1,8 km/h (1 Bft) N 5 0 min 0 W/m 7,1 C 8,6 C 3,2 km/h (1 Bft)
24.05.2019 03:25 8,6 C 8,6 C 89 % 1023,0 hPa 0,0 l/m 2,1 km/h (1 Bft) N 5 0 min 0 W/m 6,9 C 8,6 C 3,2 km/h (1 Bft)
24.05.2019 03:20 8,7 C 8,7 C 89 % 1023,0 hPa 0,0 l/m 1,8 km/h (1 Bft) N 5 0 min 0 W/m 7,0 C 8,7 C 3,2 km/h (1 Bft)
24.05.2019 03:15 8,7 C 8,7 C 89 % 1023,1 hPa 0,0 l/m 0,0 km/h (0 Bft) N 5 0 min 0 W/m 7,0 C 8,7 C 0,0 km/h (0 Bft)
24.05.2019 03:10 8,8 C 8,8 C 89 % 1023,1 hPa 0,0 l/m 0,0 km/h (0 Bft) N 5 0 min 0 W/m 7,1 C 8,8 C 0,0 km/h (0 Bft)
24.05.2019 03:05 8,8 C 8,8 C 89 % 1023,2 hPa 0,0 l/m 0,0 km/h (0 Bft) N 5 0 min 0 W/m 7,1 C 8,8 C 0,0 km/h (0 Bft)
24.05.2019 03:00 8,9 C 8,9 C 89 % 1023,3 hPa 0,0 l/m 0,8 km/h (0 Bft) N 5 0 min 0 W/m 7,2 C 8,9 C 1,6 km/h (1 Bft)
24.05.2019 02:55 8,9 C 8,9 C 89 % 1023,3 hPa 0,0 l/m 1,1 km/h (1 Bft) N 5 0 min 0 W/m 7,2 C 8,9 C 1,6 km/h (1 Bft)
24.05.2019 02:50 9,0 C 9,0 C 89 % 1023,3 hPa 0,0 l/m 0,7 km/h (0 Bft) N 5 0 min 0 W/m 7,3 C 9,0 C 3,2 km/h (1 Bft)
24.05.2019 02:45 9,1 C 9,1 C 88 % 1023,3 hPa 0,0 l/m 1,4 km/h (1 Bft) N 5 0 min 0 W/m 7,2 C 9,1 C 3,2 km/h (1 Bft)
24.05.2019 02:40 9,2 C 9,2 C 88 % 1023,3 hPa 0,0 l/m 1,3 km/h (1 Bft) N 5 0 min 0 W/m 7,3 C 9,2 C 3,2 km/h (1 Bft)
24.05.2019 02:35 9,3 C 9,3 C 88 % 1023,3 hPa 0,0 l/m 1,5 km/h (1 Bft) N 5 0 min 0 W/m 7,4 C 9,3 C 3,2 km/h (1 Bft)
24.05.2019 02:30 9,3 C 9,3 C 88 % 1023,2 hPa 0,0 l/m 1,7 km/h (1 Bft) N 5 0 min 0 W/m 7,4 C 9,3 C 4,8 km/h (1 Bft)
24.05.2019 02:25 9,4 C 9,4 C 88 % 1023,4 hPa 0,0 l/m 0,1 km/h (0 Bft) N 360 0 min 0 W/m 7,5 C 9,4 C 1,6 km/h (1 Bft)
24.05.2019 02:20 9,4 C 9,4 C 88 % 1023,5 hPa 0,0 l/m 1,1 km/h (1 Bft) N 360 0 min 0 W/m 7,5 C 9,4 C 1,6 km/h (1 Bft)
24.05.2019 02:15 9,5 C 9,5 C 87 % 1023,5 hPa 0,0 l/m 0,5 km/h (0 Bft) N 360 0 min 0 W/m 7,4 C 9,5 C 1,6 km/h (1 Bft)
24.05.2019 02:10 9,6 C 9,6 C 87 % 1023,4 hPa 0,0 l/m 0,1 km/h (0 Bft) N 360 0 min 0 W/m 7,5 C 9,6 C 1,6 km/h (1 Bft)
24.05.2019 02:05 9,6 C 9,6 C 87 % 1023,5 hPa 0,0 l/m 0,2 km/h (0 Bft) N 360 0 min 0 W/m 7,5 C 9,6 C 1,6 km/h (1 Bft)
24.05.2019 02:00 9,7 C 9,7 C 87 % 1023,5 hPa 0,0 l/m 0,1 km/h (0 Bft) N 360 0 min 0 W/m 7,6 C 9,7 C 1,6 km/h (1 Bft)
24.05.2019 01:55 9,7 C 9,7 C 87 % 1023,5 hPa 0,0 l/m 0,0 km/h (0 Bft) N 360 0 min 0 W/m 7,6 C 9,7 C 0,0 km/h (0 Bft)
24.05.2019 01:50 9,8 C 9,8 C 86 % 1023,5 hPa 0,0 l/m 1,0 km/h (0 Bft) N 360 0 min 0 W/m 7,6 C 9,8 C 1,6 km/h (1 Bft)
24.05.2019 01:45 9,8 C 9,8 C 86 % 1023,5 hPa 0,0 l/m 0,3 km/h (0 Bft) N 360 0 min 0 W/m 7,6 C 9,8 C 1,6 km/h (1 Bft)
24.05.2019 01:40 9,9 C 9,9 C 86 % 1023,4 hPa 0,0 l/m 0,1 km/h (0 Bft) N 360 0 min 0 W/m 7,7 C 9,9 C 1,6 km/h (1 Bft)
24.05.2019 01:35 10,0 C 10,0 C 86 % 1023,6 hPa 0,0 l/m 0,4 km/h (0 Bft) N 360 0 min 0 W/m 7,8 C 10,0 C 1,6 km/h (1 Bft)
24.05.2019 01:30 10,1 C 10,1 C 85 % 1023,6 hPa 0,0 l/m 1,4 km/h (1 Bft) N 360 0 min 0 W/m 7,7 C 10,1 C 3,2 km/h (1 Bft)
24.05.2019 01:25 10,2 C 10,2 C 85 % 1023,5 hPa 0,0 l/m 1,6 km/h (1 Bft) N 360 0 min 0 W/m 7,8 C 10,2 C 3,2 km/h (1 Bft)
24.05.2019 01:20 10,2 C 10,2 C 85 % 1023,6 hPa 0,0 l/m 1,4 km/h (1 Bft) N 360 0 min 0 W/m 7,8 C 10,2 C 3,2 km/h (1 Bft)
24.05.2019 01:15 10,3 C 10,3 C 85 % 1023,7 hPa 0,0 l/m 1,3 km/h (1 Bft) N 360 0 min 0 W/m 7,9 C 10,3 C 3,2 km/h (1 Bft)
24.05.2019 01:10 10,4 C 10,4 C 84 % 1023,7 hPa 0,0 l/m 1,8 km/h (1 Bft) N 360 0 min 0 W/m 7,8 C 10,4 C 3,2 km/h (1 Bft)
24.05.2019 01:05 10,6 C 10,6 C 84 % 1023,7 hPa 0,0 l/m 1,9 km/h (1 Bft) N 360 0 min 0 W/m 8,0 C 10,6 C 3,2 km/h (1 Bft)
24.05.2019 01:00 10,6 C 10,6 C 84 % 1023,7 hPa 0,0 l/m 1,8 km/h (1 Bft) N 360 0 min 0 W/m 8,0 C 10,6 C 3,2 km/h (1 Bft)
24.05.2019 00:55 10,7 C 10,7 C 83 % 1023,6 hPa 0,0 l/m 1,5 km/h (1 Bft) N 360 0 min 0 W/m 7,9 C 10,7 C 3,2 km/h (1 Bft)
24.05.2019 00:50 10,9 C 10,9 C 83 % 1023,6 hPa 0,0 l/m 2,3 km/h (1 Bft) N 360 0 min 0 W/m 8,1 C 10,9 C 3,2 km/h (1 Bft)
24.05.2019 00:45 11,0 C 11,0 C 83 % 1023,6 hPa 0,0 l/m 1,8 km/h (1 Bft) N 360 0 min 0 W/m 8,2 C 11,0 C 3,2 km/h (1 Bft)
24.05.2019 00:40 11,1 C 11,1 C 83 % 1023,7 hPa 0,0 l/m 1,5 km/h (1 Bft) N 360 0 min 0 W/m 8,3 C 11,1 C 3,2 km/h (1 Bft)
24.05.2019 00:35 11,2 C 11,2 C 83 % 1023,7 hPa 0,0 l/m 2,5 km/h (1 Bft) N 360 0 min 0 W/m 8,4 C 11,2 C 3,2 km/h (1 Bft)
24.05.2019 00:30 11,4 C 11,4 C 82 % 1023,7 hPa 0,0 l/m 2,1 km/h (1 Bft) N 360 0 min 0 W/m 8,4 C 11,4 C 4,8 km/h (1 Bft)
24.05.2019 00:25 11,4 C 11,4 C 82 % 1023,7 hPa 0,0 l/m 2,5 km/h (1 Bft) N 360 0 min 0 W/m 8,4 C 11,4 C 4,8 km/h (1 Bft)
24.05.2019 00:20 11,6 C 11,6 C 82 % 1023,8 hPa 0,0 l/m 1,7 km/h (1 Bft) N 355 0 min 0 W/m 8,6 C 11,6 C 3,2 km/h (1 Bft)
24.05.2019 00:15 11,6 C 11,6 C 82 % 1023,8 hPa 0,0 l/m 2,0 km/h (1 Bft) N 5 0 min 0 W/m 8,6 C 11,6 C 4,8 km/h (1 Bft)
24.05.2019 00:10 11,7 C 11,7 C 82 % 1023,9 hPa 0,0 l/m 3,2 km/h (1 Bft) N 5 0 min 0 W/m 8,7 C 11,7 C 4,8 km/h (1 Bft)
24.05.2019 00:05 11,7 C 11,7 C 81 % 1023,9 hPa 0,0 l/m 3,2 km/h (1 Bft) N 5 0 min 0 W/m 8,5 C 11,7 C 4,8 km/h (1 Bft)
24.05.2019 00:00 11,8 C 11,8 C 81 % 1023,9 hPa 0,0 l/m 2,5 km/h (1 Bft) N 5 0 min 0 W/m 8,6 C 11,8 C 4,8 km/h (1 Bft)
_ Min-Zeit 05:55 05:55 00:00 04:45 - 01:55 - - - - 05:55 05:55 01:55
Minimum _ 7,2 C 7,2 C 81 % 1022,7 hPa - 0,0 km/h (0 Bft) - - - - 5,8 C 7,2 C 0,0 km/h (0 Bft)
_ Max-Zeit 00:00 00:00 07:30 00:00 00:00 00:05 - - 00:00 00:00 00:10 00:00 00:00
Maximum _ 11,9 C 11,8 C 93 % 1023,9 hPa 0,0 l/m 3,2 km/h
N (1 Bft)
- - 0 min 0 W/m 8,7 C 11,8 C 4,8 km/h
N (1 Bft)
Durchschnitt _ 8,8 C 8,8 C 89 % 1023,2 hPa #0,0 l/m 0,9 km/h (0 Bft) N - #0 min. 0 W/m 7,0 C 8,8 C 2,3 km/h (1 Bft)